Location: Nairn
(57.5833°N, 3.8667°W)
Time: 00:04:09
(UTC+00:00)

Tiros 1 - Pass Details

Date: 26 September 2022
Orbit: 629 x 662 km, 48.4° (Epoch: 09 December)

Event Time Altitude Azimuth Distance (km) Brightness Sun altitude
Exits shadow 05:20:37 - 244° (WSW) 2,231 9.3 -7.2°
Reaches altitude 10° 05:21:08 10° 241° (WSW) 2,057 9.1 -7.2°
Maximum altitude 05:25:06 27° 184° (S) 1,251 8.5 -6.6°
Drops below altitude 10° 05:29:01 10° 127° (SE) 2,037 10.4 -6.1°
Sets 05:31:36 0° 116° (ESE) 2,940 11.6 -5.8°
